User: anonymous   Login
Location: NJAA Observatory
(40.6819°N, 74.8979°W)
Time: 08:39:15
(UTC-04:00)
Language:

Iridium 4 - Orbit

View from above orbital plane
View from above orbital plane
View from above satellite
View from above satellite

Ground track
Ground track

The orbit data is extracted from the following two-line orbital elements,

1 24796U 97020E   16150.53236786  .00000131  00000-0  39168-4 0  9995
2 24796  86.3949 118.5029 0002173  86.6459  42.1138 14.35081613998283
Epoch (UTC): 29 May 2016 12:46:36
Eccentricity: 0.0002173
inclination: 86.3949°
perigee height: 773 km
apogee height: 776 km
right ascension of ascending node: 118.5029°
argument of perigee: 86.6459°
revolutions per day: 14.35081613
mean anomaly at epoch: 42.1138°
orbit number at epoch: 99828

The dashed part of the orbit path shows where the satellite is in the earth's shadow,  

DLR